Content
SEND FEEDBACK

Daily
Averages
Monthly
Summary
Montenegro

NIKSIC, MONTENEGRO


Home > Europe > Montenegro
Elevation: 2122 feet     Latitude: 42 46N     Longitude: 018 57E

WEATHER
 
SELECT A DAY
Number of Records: 274,453;   Date Range: 7/1/96 - 7/22/14
 
SHARE

PRINT THIS DATA

[ ← Previous Day ]
WEATHER ALMANAC - JANUARY 31, 2013
[ Next Day → ]
[ °C ]   °F
Weather ElementAverageHighLow
Temperature43.2 °F62.6 °F (2:00 pm)32 °F (4:00 am)
Dewpoint36.3 °F42.8 °F (2:30 pm)30.2 °F (1:30 pm)
Humidity79 %100 % (1:30 am)31 % (1:30 pm)
Barometer30.09 in30.15 in (7:00 pm)30.04 in (4:00 am)
Wind Speed3 mph11.5 mph (12:00 pm)
Wind Gust23 mph (2:00 pm)
Weather ElementAverage
Visibility7.8 mi
Wind DirectionENE (75.7 °)

Weather ElementTotal
Precipitation---
Heating Degree Days17.7 (Base 65)
Averaged from 53 records on January 31, 2013
WEATHER CONDITIONS BREAKOUT
WIND DIRECTION BREAKOUT
WEATHER BY HOUR - JANUARY 31, 2013
[ °C ]   °F
Local TimeTemperatureDewpointHumidityBarometerVisibilityWind DirectionWind SpeedGust SpeedPrecipitationEventsConditions
12:30 AM35.6 °F33.8 °F93 %30.09 inCalmClear
1:00 AM33.0 °F32.0 °F93 %30.09 in12.0 miEast (90°)2.2 mph
1:00 AM33.8 °F32.0 °F93 %30.06 inVariable2.3 mphClear
1:30 AM33.8 °F33.8 °F100 %30.06 inVariable2.3 mphClear
2:00 AM33.8 °F32.0 °F93 %30.09 inVariable1.2 mphClear
2:30 AM33.8 °F32.0 °F93 %30.06 inVariable2.3 mphClear
3:00 AM33.8 °F32.0 °F93 %30.06 inWest (280°)3.5 mphClear
3:30 AM33.8 °F32.0 °F93 %30.06 inVariable2.3 mphClear
4:00 AM33.0 °F31.0 °F91 %30.06 in12.0 miCalm
4:00 AM32.0 °F32.0 °F100 %30.04 inVariable1.2 mphClear
4:30 AM33.8 °F32.0 °F93 %30.06 inCalmClear
5:00 AM32.0 °F32.0 °F100 %30.04 inVariable2.3 mphClear
5:30 AM35.6 °F33.8 °F93 %30.06 inVariable1.2 mphClear
6:00 AM35.6 °F33.8 °F93 %30.06 inEast (80°)3.5 mphClear
6:30 AM35.6 °F35.6 °F100 %30.06 in6.2 miVariable2.3 mphPartly Cloudy
7:00 AM35.0 °F34.0 °F94 %30.08 in12.0 miCalmScattered Clouds
7:00 AM35.6 °F33.8 °F93 %30.06 in6.2 miVariable2.3 mphPartly Cloudy
7:30 AM35.6 °F35.6 °F100 %30.06 in6.2 miVariable2.3 mphScattered Clouds
8:00 AM37.4 °F35.6 °F93 %30.06 in6.2 miVariable2.3 mphScattered Clouds
8:30 AM41.0 °F39.2 °F93 %30.09 in6.2 miVariable1.2 mphScattered Clouds
9:00 AM42.8 °F41.0 °F93 %30.12 in6.2 miVariable1.2 mphPartly Cloudy
9:30 AM42.8 °F41.0 °F93 %30.12 in6.2 miVariable2.3 mphPartly Cloudy
10:00 AM44.0 °F42.0 °F88 %30.13 in9.0 miWNW (290°)2.2 mphRainLight Rain
10:00 AM42.8 °F41.0 °F93 %30.12 in6.2 miVariable2.3 mphRainLight Rain
10:30 AM46.4 °F41.0 °F81 %30.06 in6.2 miWest (280°)6.9 mphPartly Cloudy
11:00 AM50.0 °F41.0 °F71 %30.09 in6.2 miVariable2.3 mphPartly Cloudy
11:30 AM57.2 °F39.2 °F51 %30.12 in6.2 miVariable2.3 mphPartly Cloudy
12:00 PM55.4 °F41.0 °F58 %30.12 inWest (270°)11.5 mphClear
12:30 PM57.2 °F41.0 °F55 %30.12 inWest (280°)8.1 mphClear
1:00 PM58.0 °F40.0 °F39 %30.09 in12.0 miWNW (290°)4.5 mphScattered Clouds
1:00 PM59.0 °F39.2 °F48 %30.09 in6.2 miVariable5.8 mphPartly Cloudy
1:30 PM60.8 °F30.2 °F31 %30.06 in6.2 miNNW (340°)5.8 mph20.7 mphPartly Cloudy
2:00 PM62.6 °F32.0 °F32 %30.09 in6.2 miNNE (30°)8.1 mph23.0 mphPartly Cloudy
2:30 PM59.0 °F42.8 °F55 %30.09 in6.2 miNW (320°)9.2 mphPartly Cloudy
3:00 PM57.2 °F42.8 °F59 %30.09 in6.2 miWest (280°)9.2 mphPartly Cloudy
3:30 PM59.0 °F42.8 °F55 %30.09 in6.2 miNNW (340°)5.8 mphPartly Cloudy
4:00 PM58.0 °F40.0 °F40 %30.11 in12.0 miCalmScattered Clouds
4:00 PM57.2 °F39.2 °F51 %30.09 in6.2 miVariable2.3 mphPartly Cloudy
4:30 PM55.4 °F42.8 °F63 %30.09 in6.2 miNNW (340°)3.5 mphPartly Cloudy
5:00 PM55.4 °F39.2 °F54 %30.09 inVariable5.8 mphClear
5:30 PM50.0 °F41.0 °F71 %30.12 inNNE (30°)3.5 mphClear
6:00 PM50.0 °F41.0 °F71 %30.12 inVariable2.3 mphClear
6:30 PM44.6 °F39.2 °F81 %30.12 inVariable2.3 mphClear
7:00 PM42.0 °F37.0 °F75 %30.15 in12.0 miESE (110°)2.2 mphPartly Cloudy
7:00 PM41.0 °F37.4 °F87 %30.15 inVariable2.3 mphClear
7:30 PM41.0 °F35.6 °F81 %30.12 inVariable1.2 mphClear
8:00 PM39.2 °F35.6 °F87 %30.15 inVariable1.2 mphClear
9:30 PM35.6 °F33.8 °F93 %30.12 inVariable2.3 mphClear
10:00 PM35.0 °F32.0 °F85 %30.15 in12.0 miCalm
10:00 PM35.6 °F32.0 °F87 %30.12 inVariable1.2 mphClear
10:30 PM33.8 °F32.0 °F93 %30.12 inVariable2.3 mphClear
11:00 PM33.8 °F30.2 °F87 %30.12 inENE (60°)3.5 mphClear
11:30 PM33.8 °F30.2 °F87 %30.12 inVariable1.2 mphClear
Hourly data recorded from LYTV, located miles away from Niksic, Montenegro







STORIES FROM OUR PARTNERS